K0UND-1 Weather Reports


time (UTC)temp
C
wind
direction
speed
KPH
gust
KPH
rain 1hr
cm
rain 24hr
cm
rain mn
cm
humidity
%
barometer
mb
20260507110006 -2 290 9.7 0.0 0.00 0.00 0.00 74 1010.5
20260507100020 -3 0 0.0 0.0 0.00 0.00 0.00 74 1010.5
20260507090009 -3 210 8.0 0.0 0.00 0.00 0.00 80 1010.8
20260507080006 -2 140 8.0 0.0 0.00 0.00 0.00 74 1010.8
20260507070011 -1 160 4.8 0.0 0.00 0.00 0.00 69 1011.2
20260507060006 -1 160 8.0 0.0 0.00 0.00 0.00 64 1011.5
20260507050010 -2 200 9.7 0.0 0.00 0.00 0.00 74 1011.9
20260507040004 0 150 11.3 0.0 0.00 0.00 0.00 64 1012.5
20260507030004 2 150 9.7 0.0 0.00 0.00 0.00 60 1012.9
20260507020009 6 0 0.0 0.0 0.00 0.00 0.00 49 1012.9
20260507010020 7 0 0.0 0.0 0.00 0.00 0.00 42 1013.2
20260507000016 7 320 12.9 0.0 0.00 0.00 0.00 42 1013.5
20260506230011 7 310 20.9 0.0 0.00 0.00 0.00 39 1013.5
20260506220008 7 290 22.5 0.0 0.00 0.00 0.00 37 1013.9
20260506210015 7 300 20.9 0.0 0.00 0.00 0.00 36 1014.6
20260506200010 7 290 22.5 0.0 0.00 0.00 0.00 39 1014.9
20260506190005 7 310 24.1 0.0 0.00 0.00 0.00 37 1015.2
20260506180010 6 290 22.5 0.0 0.00 0.00 0.00 42 1015.9
20260506170005 5 290 17.7 0.0 0.00 0.00 0.00 48 1016.6
20260506160003 3 340 9.7 0.0 0.00 0.00 0.00 52 1016.9
20260506150006 2 310 12.9 0.0 0.00 0.00 0.00 60 1017.3
20260506140014 2 330 14.5 0.0 0.00 0.00 0.00 69 1017.3
20260506130010 1 320 17.7 0.0 0.00 0.00 0.00 69 1016.9
20260506120014 -1 290 9.7 0.0 0.00 0.00 0.00 69 1016.6